CW7283 Weather Reports


time (UTC)temp
C
wind
direction
speed
KPH
gust
KPH
rain 1hr
cm
rain 24hr
cm
rain mn
cm
humidity
%
barometer
mb
20260905001906 32 236 0.0 3.2 0.00 0.00 0.00 20 1008.3
20260905000348 32 202 0.0 3.2 0.00 0.00 0.00 19 1008.3
20260904234828 32 334 0.0 6.4 0.00 0.00 0.00 19 1008.3
20260904233337 33 246 0.0 6.4 0.00 0.00 0.00 19 1008.2
20260904231833 34 189 0.0 4.8 0.00 0.00 0.00 19 1008.1
20260904230349 35 205 0.0 1.6 0.00 0.00 0.00 17 1008.1
20260904224831 36 229 0.0 1.6 0.00 0.00 0.00 17 1008.1
20260904223355 35 161 0.0 3.2 0.00 0.00 0.00 18 1008.0
20260904221912 35 198 0.0 3.2 0.00 0.00 0.00 19 1007.9
20260904220331 35 227 0.0 3.2 0.00 0.00 0.00 19 1007.9
20260904214904 35 200 0.0 3.2 0.00 0.00 0.00 18 1007.9
20260904213346 35 231 0.0 3.2 0.00 0.00 0.00 19 1007.8
20260904211837 35 154 0.0 3.2 0.00 0.00 0.00 19 1007.8
20260904210325 34 178 0.0 3.2 0.00 0.00 0.00 19 1007.9
20260904204858 34 207 0.0 3.2 0.00 0.00 0.00 19 1008.0
20260904203327 34 123 0.0 3.2 0.00 0.00 0.00 20 1008.1
20260904201909 33 153 0.0 3.2 0.00 0.00 0.00 20 1008.2
20260904200331 33 296 0.0 4.8 0.00 0.00 0.00 20 1008.2
20260904194842 33 111 0.0 4.8 0.00 0.00 0.00 20 1008.3
20260904193352 33 105 0.0 4.8 0.00 0.00 0.00 19 1008.3
20260904191851 32 104 0.0 3.2 0.00 0.00 0.00 22 1008.4
20260904190328 32 149 0.0 3.2 0.00 0.00 0.00 21 1008.6
20260904184836 31 298 0.0 3.2 0.00 0.00 0.00 23 1008.8
20260904183334 31 49 0.0 3.2 0.00 0.00 0.00 22 1008.9
20260904181827 31 292 0.0 4.8 0.00 0.00 0.00 21 1009.1
20260904180328 30 24 0.0 3.2 0.00 0.00 0.00 28 1009.4
20260904174829 29 341 0.0 3.2 0.00 0.00 0.00 31 1009.5
20260904173331 27 290 0.0 3.2 0.00 0.00 0.00 31 1009.5
20260904171837 26 290 0.0 3.2 0.00 0.00 0.00 30 1009.5
20260904170334 25 291 0.0 3.2 0.00 0.00 0.00 31 1009.6
20260904164841 23 294 0.0 3.2 0.00 0.00 0.00 32 1009.6
20260904163326 23 22 0.0 0.0 0.00 0.00 0.00 36 1009.9
20260904161837 21 73 0.0 0.0 0.00 0.00 0.00 38 1010.1
20260904160333 20 360 0.0 0.0 0.00 0.00 0.00 41 1010.0
20260904154831 19 70 0.0 0.0 0.00 0.00 0.00 44 1010.0
20260904153338 18 69 0.0 1.6 0.00 0.00 0.00 46 1010.1
20260904151836 16 70 0.0 3.2 0.00 0.00 0.00 47 1010.1
20260904150400 14 36 0.0 3.2 0.00 0.00 0.00 54 1010.0
20260904144831 13 360 0.0 3.2 0.00 0.00 0.00 55 1010.1
20260904143344 12 316 0.0 3.2 0.00 0.00 0.00 58 1010.1
20260904141837 11 186 0.0 1.6 0.00 0.00 0.00 62 1010.1
20260904140350 10 132 0.0 3.2 0.00 0.00 0.00 65 1010.0
20260904124900 8 138 0.0 0.0 0.00 0.00 0.00 71 1009.5
20260904123406 8 159 0.0 0.0 0.00 0.00 0.00 70 1009.5
20260904121849 8 223 0.0 0.0 0.00 0.00 0.00 71 1009.4
20260904120329 9 225 0.0 3.2 0.00 0.00 0.00 70 1009.5
20260904114843 9 238 0.0 0.0 0.00 0.00 0.00 68 1009.4
20260904113348 10 274 0.0 0.0 0.00 0.00 0.00 66 1009.5
20260904111842 10 274 0.0 0.0 0.00 0.00 0.00 65 1009.5
20260904110350 10 254 0.0 0.0 0.00 0.00 0.00 63 1009.5
20260904104906 11 254 0.0 0.0 0.00 0.00 0.00 61 1009.5
20260904103330 11 254 0.0 0.0 0.00 0.00 0.00 59 1009.5
20260904101848 11 225 0.0 0.0 0.00 0.00 0.00 59 1009.6
20260904100342 11 232 0.0 0.0 0.00 0.00 0.00 59 1009.7
20260904094828 11 232 0.0 0.0 0.00 0.00 0.00 58 1009.5
20260904093339 11 193 0.0 0.0 0.00 0.00 0.00 57 1009.5
20260904091833 11 230 0.0 0.0 0.00 0.00 0.00 55 1009.5
20260904090358 12 273 0.0 0.0 0.00 0.00 0.00 56 1009.5
20260904084837 12 272 0.0 0.0 0.00 0.00 0.00 56 1009.5
20260904083335 12 298 0.0 0.0 0.00 0.00 0.00 55 1009.7
20260904081832 12 304 0.0 1.6 0.00 0.00 0.00 55 1009.6
20260904080324 12 263 0.0 0.0 0.00 0.00 0.00 55 1010.0
20260904074826 12 232 0.0 0.0 0.00 0.00 0.00 54 1010.0
20260904073334 12 177 0.0 1.6 0.00 0.00 0.00 56 1010.4
20260904071836 12 244 0.0 0.0 0.00 0.00 0.00 55 1010.1
20260904070352 12 283 0.0 0.0 0.00 0.00 0.00 55 1010.3
20260904064831 12 283 0.0 0.0 0.00 0.00 0.00 55 1010.4
20260904063422 13 283 0.0 0.0 0.00 0.00 0.00 55 1010.5
20260904061849 13 303 0.0 0.0 0.00 0.00 0.00 59 1010.4
20260904060328 13 303 0.0 0.0 0.00 0.00 0.00 56 1010.5
20260904054851 13 304 0.0 0.0 0.00 0.00 0.00 54 1010.6
20260904053337 14 288 0.0 0.0 0.00 0.00 0.00 54 1010.6
20260904051826 14 288 0.0 0.0 0.00 0.00 0.00 51 1010.6
20260904050408 15 288 0.0 0.0 0.00 0.00 0.00 52 1010.6
20260904044848 15 296 0.0 0.0 0.00 0.00 0.00 49 1010.6
20260904043352 16 148 0.0 0.0 0.00 0.00 0.00 47 1010.7
20260904041855 16 219 0.0 0.0 0.00 0.00 0.00 47 1010.8
20260904040344 17 254 0.0 0.0 0.00 0.00 0.00 44 1010.9
20260904034840 18 254 0.0 0.0 0.00 0.00 0.00 41 1010.7
20260904033359 18 237 0.0 0.0 0.00 0.00 0.00 41 1010.7
20260904031844 19 235 0.0 0.0 0.00 0.00 0.00 39 1010.5
20260904030328 20 274 0.0 0.0 0.00 0.00 0.00 37 1010.2
20260904024830 20 247 0.0 0.0 0.00 0.00 0.00 35 1010.1
20260904023345 20 292 0.0 0.0 0.00 0.00 0.00 36 1009.8
20260904021839 21 292 0.0 0.0 0.00 0.00 0.00 34 1009.5
20260904020344 21 338 0.0 0.0 0.00 0.00 0.00 34 1009.5
20260904014837 22 338 0.0 0.0 0.00 0.00 0.00 33 1009.3
20260904013330 23 338 0.0 0.0 0.00 0.00 0.00 31 1009.2
20260904011832 25 9 0.0 0.0 0.00 0.00 0.00 29 1009.0
20260904010337 25 360 0.0 0.0 0.00 0.00 0.00 27 1008.9
20260904004848 26 19 0.0 3.2 0.00 0.00 0.00 26 1008.9
20260904003329 27 24 0.0 3.2 0.00 0.00 0.00 25 1008.8